Location: *
(28.1019°S, 30.9867°E)
Time: 22:47:06
(UTC+00:00)

Daily predictions for brighter satellites

Satellite Brightness Start Highest point End
(mag) Time Altitude Azimuth Time Altitude Azimuth Time Altitude Azimuth
Cosmos 1538 Rocket 4.4 17:03:48 10° N 17:08:52 44° E 17:13:58 10° SSE
SL-4 R/B 2.0 17:04:56 10° SW 17:08:59 89° SE 17:13:01 10° NE
BlueWalker 3 3.4 17:08:22 10° NNE 17:10:39 16° ENE 17:12:57 10° E
CZ-2D R/B 3.7 17:08:45 10° S 17:12:58 78° WSW 17:17:11 10° NNW
Meteor 1-31 Rocket 4.4 17:15:55 10° ESE 17:17:45 14° E 17:19:33 10° NE
ATLAS 3B R/B 2.8 17:15:23 10° SSW 17:21:42 58° ESE 17:28:23 10° NE
COSMOS 2428 2.8 17:16:25 10° SSW 17:22:11 83° WNW 17:27:52 10° NNE
CZ-4C R/B 3.4 17:17:35 10° N 17:26:34 58° ENE 17:34:41 10° SE
OAO 3 Rocket 4.2 17:22:06 10° WSW 17:26:35 40° S 17:31:01 10° E
PSLV R/B 3.7 17:25:12 10° S 17:29:16 71° WSW 17:33:16 10° NNW
Cosmos 1271 Rocket 4.3 17:27:26 10° SE 17:29:31 15° ESE 17:31:05 12° ENE
USA 267 3.8 17:24:26 10° SSE 17:30:58 66° SW 17:37:29 10° NW
CZ-3 Stage 3 4.4 17:17:33 10° WSW 17:30:58 25° WNW 17:36:20 10° N
SL-19 R/B 4.1 17:25:48 10° SSE 17:31:06 82° ENE 17:36:19 10° NNW
EO 1 Delta rocket 4.0 17:25:49 10° SSE 17:31:17 62° E 17:35:56 10° N
Cosmos 1900 4.2 17:30:45 10° NNW 17:35:35 84° ENE 17:40:27 10° SSE
Cosmos 1842 Rocket 4.4 17:34:12 10° SSW 17:38:33 52° W 17:42:48 10° NNW
SJ-6B 2.7 17:35:47 10° SSE 17:39:16 52° E 17:42:44 10° N
Cosmos 1975 3.8 17:38:08 14° NE 17:40:23 24° E 17:43:26 10° SE
NOAA 6 4.1 17:35:20 10° S 17:40:33 84° WSW 17:45:41 10° NNW
Cosmos 2082 4.5 17:36:57 10° NNE 17:41:51 30° ENE 17:46:46 10° SE
Cosmos 2084 Rocket 3.3 17:38:06 10° NNW 17:42:15 66° ENE 17:46:25 10° SE
Cosmos 1908 2.4 17:41:03 10° N 17:43:57 88° W 17:46:55 10° S
SL-24 R/B 4.1 17:40:28 10° NNE 17:44:54 71° ESE 17:49:14 10° S
CZ-4B R/B 4.3 17:41:32 10° SSE 17:44:57 34° E 17:47:34 14° NNE
Cosmos 1766 2.8 17:42:36 10° N 17:45:53 65° E 17:49:15 10° SSE
OAO 2 Rocket 3.8 17:41:06 10° WSW 17:46:02 57° SSE 17:50:25 13° E
Resurs 01 Rocket 1.6 17:41:39 10° SSE 17:46:08 81° ENE 17:50:33 10° N
GPS 2-17 Rocket1 4.4 17:44:33 10° NNW 17:47:35 19° NNE 17:48:48 17° NE
Cosmos 1709 Rocket 4.0 17:43:20 10° N 17:49:26 65° E 17:55:43 10° SSE
Cosmos 923 Rocket 4.3 17:45:18 10° N 17:50:13 44° E 17:55:12 10° SSE
Cosmos 1151 Rocket 3.0 17:49:13 10° S 17:53:34 65° E 17:57:00 15° NNE
SL-16 R/B 4.0 17:50:14 10° SSE 17:53:43 16° ESE 17:56:16 13° E
Cosmos 1745 Rocket 4.1 17:48:05 10° N 17:54:12 81° W 18:00:28 10° S
Meteor 2-9 Rocket 4.1 17:51:18 10° N 17:56:38 67° E 18:02:11 10° SSE
OAO 3 Copernicus 4.4 17:55:16 10° WSW 18:00:19 69° NNW 18:03:19 24° NE
Cosmos 1766 Rocket 4.2 17:58:43 22° NE 18:00:49 35° E 18:04:48 10° SSE
Cosmos 1980 3.7 17:55:53 10° SSW 18:01:35 90° ESE 18:06:01 17° NNE
DELTA 2 R/B (1) 4.5 17:56:46 10° W 18:02:09 50° SSW 18:07:34 10° SE
Cosmos 1300 2.5 18:05:54 34° ESE 18:05:54 34° ESE 18:08:11 10° SSE
CZ-4 R/B 1.9 18:02:32 10° SSE 18:06:08 35° E 18:07:09 30° NE
Delta 7925 Rocket 3.6 18:02:28 10° NW 18:06:49 40° NNE 18:08:53 26° ENE
Cosmos 2219 3.1 18:03:02 10° N 18:08:45 74° ENE 18:14:28 10° SSE
Cosmos 1844 Rocket 4.3 18:10:15 16° E 18:10:15 16° E 18:12:41 10° ESE
Cosmos 2237 Rocket 2.3 18:08:04 10° SSW 18:13:48 76° WNW 18:17:50 20° N
CZ-4B R/B 4.2 18:10:16 10° SE 18:14:34 24° E 18:14:48 24° ENE
Nadezhda 1 Rocket 4.2 18:08:33 10° S 18:15:01 79° W 18:21:08 11° N
Cosmos 2263 Rocket 2.8 18:11:15 10° NNW 18:16:49 58° WSW 18:22:26 10° S
Cosmos 1867 4.4 18:12:15 10° NW 18:17:30 52° WSW 18:22:46 10° SSE
CZ-4B DEB 4.5 18:15:57 10° SSE 18:21:10 45° E 18:23:24 30° NNE
Cosmos 1680 Rocket 3.5 18:16:48 11° N 18:21:53 67° ENE 18:27:11 10° SSE
Helios 1A 3.3 18:29:28 40° E 18:29:45 41° ESE 18:33:32 10° S
Aurora 2 Rocket 4.2 18:31:48 10° W 18:40:01 72° N 18:45:34 29° ENE
Cosmos 2154 Rocket 4.3 18:42:57 40° ENE 18:44:10 45° E 18:50:04 10° SSE
Cosmos 1470 3.8 18:46:23 27° NW 18:47:38 36° W 18:50:53 10° SSW
BlueWalker 3 3.6 18:44:38 10° WNW 18:47:56 32° SW 18:51:15 10° SSE
ADEOS 3.5 18:46:10 10° SSE 18:51:25 68° ENE 18:52:22 55° NNE
Cosmos 2074 Rocket 3.9 18:51:32 44° NNE 18:53:28 67° E 18:59:43 10° SSE
SPOT 5 3.5 18:51:41 10° S 18:56:58 61° WSW 19:00:17 22° NNW
CSL-04 Rocket 4.1 18:51:44 10° S 18:57:06 61° WSW 19:01:05 18° NNW
Cosmos 1295 Rocket 4.4 18:57:50 42° N 19:00:07 84° E 19:06:19 10° S
Okean O Rocket 3.1 18:57:07 10° SSE 18:59:25 26° SE 18:59:25 26° SE
Okean-O 4.2 19:05:38 10° SSE 19:07:42 24° SE 19:07:42 24° SE
OAO 3 Rocket 3.2 19:05:12 10° WSW 19:09:27 71° W 19:09:27 71° W
Cosmos 2181 Rocket 3.9 19:07:03 10° S 19:13:32 90° ESE 19:14:52 59° N
Okean 3 Rocket 3.9 19:16:41 67° SW 19:16:41 67° SW 19:20:53 10° S
Cosmos 1844 3.7 19:19:52 68° ESE 19:19:52 68° ESE 19:25:01 10° SSE
Sich 1 3.9 19:22:16 45° S 19:22:16 45° S 19:25:17 10° S
Cosmos 1515 Rocket 4.5 19:21:43 10° S 19:24:43 43° S 19:24:43 43° S
Terra 2.2 19:25:52 10° S 19:30:05 62° SW 19:30:05 62° SW
OAO 2 Rocket 4.4 19:25:44 10° WSW 19:29:09 37° WNW 19:29:09 37° WNW
Cosmos 2056 Rocket 3.8 19:30:04 10° S 19:34:43 62° SSE 19:34:43 62° SSE
SL-16 R/B 2.6 19:32:31 10° SSW 19:38:04 52° WNW 19:38:08 52° WNW
CZ-4 R/B 4.4 19:38:51 10° SW 19:39:49 11° WSW 19:40:48 10° W
ERS-1 Rocket 3.8 19:37:26 10° S 19:42:14 45° WSW 19:42:37 44° W
USA 234 3.7 19:42:42 45° ESE 19:43:36 48° SE 19:49:51 10° SSW
USA 281 4.0 19:40:28 10° SE 19:44:51 38° ESE 19:44:51 38° ESE
Cosmos 1844 Rocket 3.5 19:51:47 43° W 19:52:38 47° WSW 19:58:04 10° S
Cosmos 1943 3.8 19:49:48 10° SSW 19:54:13 52° SSE 19:54:13 52° SSE
Meteor 2-10 Rocket 4.2 19:58:55 58° SW 19:58:55 58° SW 20:03:52 10° S
Cosmos 2341 Rocket 4.5 20:06:47 54° SSE 20:06:47 54° SSE 20:11:42 10° S
BREEZE M DEB (TANK) 4.4 20:28:45 74° NNW 20:29:47 85° NE 21:00:41 10° SE
ATLAS 5 CENTAUR R/B 3.8 20:25:54 10° SSW 20:28:20 25° S 20:28:20 25° S
Okean O Rocket 4.4 20:34:49 10° SW 20:36:41 14° WSW 20:36:41 14° WSW
Cosmos 1943 Rocket 4.0 22:01:23 28° S 22:01:23 28° S 22:03:57 10° SSE
Cosmos 2278 Rocket 4.0 22:30:41 27° SSW 22:30:41 27° SSW 22:33:37 10° S
Cosmos 2082 Rocket 4.1 22:30:08 10° S 22:34:08 25° SE 22:34:08 25° SE
CZ-2D R/B 4.4 22:41:53 17° ESE 22:42:10 17° ESE 22:45:40 10° SSE
CENTAUR R/B 4.1 22:46:31 35° E 22:46:31 35° E 22:52:50 10° SE
IDEFIX/ARIANE 42P 4.3 22:53:57 29° S 22:53:57 29° S 22:56:29 10° S
ACS3 Solar Sail 4.3 22:49:00 10° E 22:51:41 13° ESE 22:54:20 10° SE
BREEZE-M DEB (TANK) 4.4 22:58:12 79° W 22:58:43 83° SW 23:26:27 10° SE
Resurs 1-4 Rocket 3.7 23:06:12 30° SE 23:06:12 30° SE 23:10:06 10° S
SeaSat 1 4.3 23:14:49 26° ESE 23:14:57 26° ESE 23:18:58 10° S
Lacrosse 4 Rocket 4.2 23:25:46 14° SE 23:25:46 14° SE 23:26:34 10° SE
Envisat 4.3 23:27:54 36° SE 23:27:54 36° SE 23:31:58 10° S
CZ-2C R/B 3.5 23:27:18 10° S 23:31:18 48° S 23:31:18 48° S
Cosmos 1725 Rocket 4.2 23:35:49 67° SSE 23:35:49 67° SSE 23:41:08 10° S
USA 215 3.6 23:40:19 10° SSE 23:46:42 54° SW 23:47:09 53° WSW
ADEOS Rocket 3.9 23:47:03 34° NE 23:49:32 49° ESE 23:55:31 10° S
SL-08 R/B 4.5 23:51:38 81° SSW 23:51:38 81° SSW 23:57:42 10° S
SJ 16-02 4.0 23:58:38 11° SW 23:58:38 11° SW 23:58:58 10° SSW
